www.pogodaiklimat.ru

Погода и климат >> Архив погоды >> Индия >> Западная Бенгалия >> Халдия


ПОГОДА в Халдии

  • Прогноз погоды в Халдии
  • Монитор погоды в Халдии

АРХИВ ПОГОДЫ в Халдии

Время (UTC), дата Ветер
(напр.,м/с)
 
Видим.   Явления Облачность Т
(С)
Тd
(С)
f
(%)
Тe
(С)
Тes
(С)
Комфортность P
(гПа)
Po
(гПа)
Тmin
(С)
Tmax
(С)
R
(мм)
R24
(мм)
S
(см)
00 15.09 Ю 1 4000 м 6/4 300 м
[Sc diur, vesp Ac As]
+27.6 +26.2 92 +42 +42 опасность
перегрева
1006.8 1005.9
03 15.09 штиль 0 4000 м 4/4 300 м
[Sc diur, vesp]
+30.6 +26.7 80 +48 +55 опасность
перегрева
1007.5 1006.6 +27.4
06 15.09 штиль 0 4000 м 4/4 300 м
[Sc diur, vesp]
+33.4 +27.7 72 +53 +69 опасность
перегрева
1006.6 1005.7
09 15.09 штиль 0 4000 м 3/1 300 м
[Sc diur, vesp Ac trans]
+33.6 +26.7 67 +51 +62 опасность
перегрева
1004.1 1003.2
12 15.09 штиль 0 4000 м 4/1 300 м
[Sc diur, vesp Ac trans Ci fib]
+30.6 +27.2 82 +48 +48 опасность
перегрева
1003.9 1003.0 +34.4
15 15.09 штиль 0 4000 м 4/3 300 м
[Sc Ac trans]
+29.2 +27.3 90 +47 +47 опасность
перегрева
1005.9 1005.0
00 16.09 штиль 0 4000 м 3/1 300 м
[Sc Ac trans]
+28.0 +26.6 92 +43 +43 опасность
перегрева
1005.0 1004.1
03 16.09 штиль 0 4000 м 5/4 300 м
[Sc diur, vesp Ac trans]
+30.6 +27.3 83 +49 +56 опасность
перегрева
1006.4 1005.5 +27.9
06 16.09 штиль 0 4000 м 4/3 300 м
[Sc diur, vesp Ac trans]
+33.4 +27.4 71 +53 +69 опасность
перегрева
1005.7 1004.8
09 16.09 штиль 0 4000 м 5/4 300 м
[Sc diur, vesp Ac trans]
+33.6 +27.9 72 +54 +61 опасность
перегрева
1003.2 1002.3
12 16.09 штиль 0 4000 м 6/4 300 м
[Sc diur, vesp As trans Ci fib]
+30.6 +26.7 80 +48 +48 опасность
перегрева
1003.2 1002.3 +33.7
15 16.09 штиль 0 4000 м 5/3 300 м
[Sc diur, vesp Ci fib]
+29.4 +26.6 85 +45 +45 опасность
перегрева
1005.4 1004.5
00 17.09 штиль 0 4000 м 4/3 300 м
[Sc diur, vesp Ac trans]
+28.2 +26.2 89 +43 +43 опасность
перегрева
1005.2 1004.3
03 17.09 штиль 0 4000 м 4/3 300 м
[Sc diur, vesp Ci fib]
+30.6 +27.0 81 +48 +56 опасность
перегрева
1007.0 1006.1 +27.8
06 17.09 штиль 0 4000 м 4/3 300 м
[Sc diur, vesp Ci fib]
+33.2 +26.9 70 +51 +69 опасность
перегрева
1007.3 1006.4
09 17.09 штиль 0 10 км 5/5 300 м
[Sc diur, vesp]
+34.4 +27.6 68 +54 +61 опасность
перегрева
1005.0 1004.1
12 17.09 штиль 0 4000 м {дождь} 4/4 300 м
[Sc diur, vesp]
+31.0 +26.8 78 +48 +48 опасность
перегрева
1005.3 1004.4 +35.2 0.0
15 17.09 4000 м н/о +29.2 +26.7 86 +45 +45 опасность
перегрева
1007.5 1006.6 0.0
00 18.09 штиль 0 4000 м 5/1 200 м
[St Ac As]
+28.0 +26.6 92 +43 +43 опасность
перегрева
1007.9 1007.0 0.0
03 18.09 ЮВ 1 4000 м 5/5 300 м
[Sc diur, vesp]
+30.8 +26.9 80 +48 +54 опасность
перегрева
1010.0 1009.1 +27.6 0.0
06 18.09 ЮВ 1 4000 м 4/4 300 м
[Sc diur, vesp]
+34.6 +28.4 70 +56 +70 опасность
перегрева
1009.6 1008.7
09 18.09 ЮВ 1 4000 м слаб. дождь 8/4 200 м
[Frnb Ac As Cs]
+35.0 +28.2 68 +56 +61 опасность
перегрева
1007.3 1006.4 0.6
12 18.09 ЮВ 1 4000 м {дождь} 6/3 300 м
[Sc diur, vesp As trans Cs]
+30.4 +26.2 78 +46 +46 опасность
перегрева
1007.8 1006.9 +35.6 2
15 18.09 ЮВ 1 4000 м 6/4 300 м
[Sc diur, vesp Ac As]
+29.4 +26.6 85 +45 +45 опасность
перегрева
1009.8 1008.9 2
00 19.09 штиль 0 4000 м {дождь} 8/4 200 м
[St Ac As]
+27.8 +26.4 92 +42 +42 опасность
перегрева
1009.3 1008.4 2
03 19.09 В 1 4000 м 5/4 300 м
[Sc diur, vesp Ac As]
+30.6 +27.3 83 +49 +55 опасность
перегрева
1010.9 1010.0 +26.6 3
06 19.09 В 1 4000 м 5/5 300 м
[Sc diur, vesp]
+33.8 +28.4 73 +55 +67 опасность
перегрева
1009.9 1009.0
09 19.09 штиль 0 4000 м 4/4 300 м
[Sc diur, vesp]
+34.8 +27.7 67 +55 +63 опасность
перегрева
1008.0 1007.1
12 19.09 штиль 0 4000 м 3/1 300 м
[Sc diur, vesp Ac trans]
+31.2 +27.1 79 +49 +49 опасность
перегрева
1007.9 1007.0 +35.5
15 19.09 штиль 0 4000 м 3/1 300 м
[Sc Ac trans]
+29.2 +27.3 90 +47 +47 опасность
перегрева
1009.8 1008.9
00 20.09 штиль 0 4000 м 3/1 300 м
[Sc Ac trans]
+27.4 +26.0 92 +41 +41 опасность
перегрева
1009.0 1008.1
03 20.09 штиль 0 4000 м 4/3 300 м
[Sc diur, vesp Ac trans]
+30.0 +26.9 84 +47 +55 опасность
перегрева
1010.4 1009.5 +27.3
06 20.09 штиль 0 4000 м 6/5 300 м
[Sc diur, vesp Ac trans]
+34.6 +27.8 68 +55 +66 опасность
перегрева
1010.0 1009.1
09 20.09 штиль 0 4000 м 4/3 300 м
[Sc diur, vesp Ci fib]
+34.4 +27.9 69 +55 +64 опасность
перегрева
1006.7 1005.8
12 20.09 Ю 1 4000 м 6/3 300 м
[Sc diur, vesp Cs]
+31.6 +25.4 70 +46 +46 опасность
перегрева
1006.0 1005.1 +35.6
15 20.09 штиль 0 4000 м 5/3 300 м
[Sc diur, vesp Cs]
+29.4 +26.3 83 +45 +45 опасность
перегрева
1008.5 1007.6
00 21.09 штиль 0 4000 м 4/4 300 м
[]
+27.2 +25.5 90 +40 +40 очень
душно
1008.3 1007.4
03 21.09 штиль 0 4000 м 4/3 300 м
[Sc diur, vesp Ci fib]
+30.4 +26.7 81 +47 +55 опасность
перегрева
1009.4 1008.5 +27.5
06 21.09 штиль 0 4000 м 8/4 300 м
[Sc diur, vesp Ac trans Ci fib]
+31.6 +26.9 76 +49 +59 опасность
перегрева
1008.2 1007.3
09 21.09 штиль 0 4000 м гроза, ливневой дождь 10/6 200 м
[Cb cap As op]
+26.0 +25.1 95 +37 +38 очень
душно
1006.8 1005.9 6
12 21.09 штиль 0 4000 м слаб. дождь {гроза} 10/6 200 м
[Frnb As op]
+26.4 +25.8 97 +39 +39 очень
душно
1006.7 1005.8 +34.0 8

 

Местоположение метеостанции Халдия (Западная Бенгалия, Индия): широта 22.04 долгота 88.04 высота над уровнем моря 8 м.

В архиве по умолчанию представлена погода в Халдии за последнюю неделю. Архивные данные за месяц целиком и за предыдущие месяцы, начиная с января 2011 года, Вы можете получить, выбрав интересующий диапазон дат из раскрывающегося списка и нажав кнопку "Ввод!".


*Определитесь, кто Вы:
робот инопланетянин человек

Внимание! Время в таблицах - всемирное. Для получения местного времени необходимо прибавить поправку, которая равна 5.5 ч.

Смотрите также архив погоды в соседних городах и на ближайших метеорологических станциях:

Погода в Даймонд Харбор (Западная Бенгалия, Индия) (23 км)
Погода в Контае (Западная Бенгалия, Индия) (42 км)
Погода в Улуберии (Западная Бенгалия, Индия) (52 км)
Погода в Колкате (Западная Бенгалия, Индия) (62 км)
Погода в Каннинге (Западная Бенгалия, Индия) (69 км)
Погода в Диге (Западная Бенгалия, Индия) (73 км)
Погода в Колкате (Западная Бенгалия, Индия) (80 км)
Погода в Миднапуре (Западная Бенгалия, Индия) (85 км)
Погода в Бейсирхэте (Западная Бенгалия, Индия) (109 км)
Погода в Багати (Западная Бенгалия, Индия) (110 км)

Пояснения к столбцам:

Ветер - указаны скорость ветра в м/с - средняя за 10 мин, порывы в срок и между сроками (в фигурных скобках) и направление, откуда дует ветер: С - северный, СВ - северо-восточный, В - восточный, ЮВ - юго-восточный, Ю - южный, ЮЗ - юго-западный, З - западный, СЗ - северо-западный.
Видимость - горизонтальная дальность видимости в метрах или километрах. При видимости от 1 до 10 км при отсутствии осадков обычно наблюдается дымка, при ухудшении видимости до 1 км и менее - туман. В сухую погоду видимость может ухудшаться дымом, пылью или мглою.
Явления - указаны атмосферные явления, наблюдавшиеся в срок или в последний час перед сроком; фигурными скобками обозначены явления, наблюдавшиеся между сроками (за 1-3 часа до срока); квадратными скобками обозначены град или гололедные отложения с указанием их диаметра в мм.
Облачность - указаны через наклонную черту общая и нижняя облачность в баллах и высота нижней границы облаков в метрах; квадратными скобками обозначены формы облаков: Ci - перистые, Cs - перисто-слоистые, Cc - перисто-кучевые, Ac - высококучевые, As - высокослоистые, Sc - слоисто-кучевые, Ns - слоисто-дождевые, Cu - кучевые, Cb - кучево-дождевые. Подробнее классификацию облаков см. в Атласе облаков (PDF).
T - Температура воздуха - температура, измеренная на высоте 2 м над землей.
Td - Температура точки росы - температура, при понижении до которой содержащийся в воздухе водяной пар достигнет насыщения.
f - Относительная влажность воздуха - влажноcть воздуха, измеренная на высоте 2 м над землей.
Te - Эффективная температура - температура, которую ощущает одетый по сезону человек в тени. Характеристика душности погоды. При расчете учитывается влияние влажности воздуха и скорости ветра на теплоощущения человека.
Tes - Эффективная температура на солнце - температура, которую ощущает человек, с поправкой на солнечный нагрев. Характеристика знойности погоды. Зависит от высоты солнца над горизонтом, облачности и скорости ветра. Ночью, в пасмурную погоду, а также при ветре 12 м/с и более поправка равна нулю.
P - Атмосферное давление - приведенное к уровню моря атмосферное давление.
Po - Атмосферное давление - измеренное на уровне метеостанции атмосферное давление.
Tmin - Минимальная температура - минимум температуры воздуха на высоте 2 м над землей.
Tmax - Максимальная температура - максимум температуры воздуха на высоте 2 м над землей.
R - Количество осадков - Количество выпавших осадков за период времени, мм. При наведении курсора мыши на число - период времени, за который выпало указанное количество осадков.
R24 - Количество осадков - Количество выпавших осадков за 24 часа, мм.
S - Снежный покров - Высота снежного покрова, см. При наведении курсора мыши на число - состояние снежного покрова и степень покрытия местности в баллах.